Weather Roundup
Issued by NWS Corpus Christi, TX

Home | Current Version | Previous Version | Text Only | Print | Product List | Glossary On
Versions: 1 2 3 4 5 6 7 8 9 10 11 12 13 14 15 16 17 18 19 20 21 22 23 24 25 26 27 28 29 30 31 32 33 34 35 36 37 38 39 40 41 42 43 44 45 46 47 48 49 50
000
ASUS44 KCRP 261510
HRRCRP

SOUTH TEXAS REGIONAL WEATHER ROUNDUP
NATIONAL WEATHER SERVICE CORPUS CHRISTI TX
1000 AM CDT SUN APR 26 2015


TXZ229>244-261600-
...CORPUS CHRISTI AREA OBSERVATIONS...

CITY           SKY/WX    TMP DP  RH WIND       PRES   REMARKS
CORPUS CHRISTI PTSUNNY   80  75  84 E10       29.69F
NAS CORPUS CHR CLOUDY    75  75 100 E9        29.70S FOG
ROCKPORT       MOSUNNY   79  75  87 SE10      29.69S FOG
KINGSVILLE NAS CLOUDY    77  77 100 SE8       29.70S FOG
ALICE          CLOUDY    83  75  77 SE9       29.69S HAZE    HX  90
FALFURRIAS     CLOUDY    79  76  90 E6        29.69F
$$

...VICTORIA AREA OBSERVATIONS...

CITY           SKY/WX    TMP DP  RH WIND       PRES   REMARKS
VICTORIA       CLOUDY    76  76 100 E7        29.71S FOG
BEEVILLE       FAIR      80  75  84 SE7       29.70S
PLEASANTON     CLOUDY    74  70  89 CALM      29.72S FOG
SAN ANTONIO    CLOUDY    75  69  81 SE7       29.74S
$$

...LAREDO AREA OBSERVATIONS...

CITY           SKY/WX    TMP DP  RH WIND       PRES   REMARKS
LAREDO         CLOUDY    78  73  84 S7        29.73R
COTULLA        CLOUDY    75  70  84 SE6       29.72R HAZE
DEL RIO        CLOUDY    77  72  84 S9        29.68S HAZE
MCALLEN        CLOUDY    82  76  81 SE3       29.70S HAZE
HEBBRONVILLE     N/A     78  73  85 SE9       29.71S HAZE
$$

...OTHER TEXAS OBSERVATIONS...

CITY           SKY/WX    TMP DP  RH WIND       PRES   REMARKS
BROWNSVILLE    CLOUDY    84  77  79 SE9       29.69R HAZE    HX  94
HOUSTON        CLOUDY    75  69  81 E8        29.74F
COL. STATION   PTSUNNY   75  67  76 CALM      29.74S
AUSTIN         CLOUDY    72  67  84 N5        29.75R THUNDER
WACO           PTSUNNY   76  70  82 SE10      29.72F
FORT WORTH     MOSUNNY   73  61  65 S9        29.70S
WICHITA FALLS  SUNNY     69  52  54 VRB3      29.70S
LUBBOCK        PTSUNNY   73  30  20 SW9       29.72F
EL PASO        CLOUDY    63  21  20 SW21      29.77F
$$

...MARINE OBSERVATIONS...

STATION/POSITION TIME  SKY/WX   TEMP    WIND        PRES    VSBY  WAVE   SWELL
                                AIR SEA DIR/SP/G                  HT/PER HT/PER
                 (UTC)          (F)     (DEG/KT/KT) (MB)    (MI)  (FT/S) (FT/S)
PORT ARANSAS     1500            74 75   80/ 10/ 11 1006.3R
BUOY 90 E PORT A 1450            75 76   90/  6/  8 1007.6R         2/ 5   2/ 5
BUOY 45 SE BAFFI 1450            75 75   90/ 10/ 10 1005.9R         3/ 6   2/ 6
BUOY 200 E PT IS 1450            80 79  160/ 10/ 10 1007.1R         4/ 7   3/ 7
BUOY 15 E GALVES 1450            73 74  180/  4/  8 1007.8R         2/ 6   2/ 6
$$


USA.gov is the U.S. government's official web portal to all federal, state and local government web resources and services.